Location: Bushey
(51.6333°N, 0.3667°W)
Time: 12:37:43
(UTC+00:00)

Cosmos 1461 - Pass Details

Date: 03 March 2021
Orbit: 504 x 660 km, 65.0° (Epoch: 12 April)

Event Time Altitude Azimuth Distance (km) Brightness Sun altitude
Rises 19:07:59 0° 235° (SW) 2,976 7.4 -13.6°
Reaches altitude 10° 19:10:20 10° 240° (WSW) 2,074 6.6 -13.9°
Maximum altitude 19:14:58 55° 318° (NW) 800 3.9 -14.6°
Drops below altitude 10° 19:19:37 10° 37° (NE) 2,071 5.5 -15.4°
Enters shadow 19:20:38 - 39° (NE) 2,454 5.8 -15.5°
